Temperature
29 25 25 25 26 26 27 27 27 28 29 28 27 26 26 26 25 25 24 24 24 23 24 23 23 23 22 22 21 21 21 20 20 20 20 19 19 19 19 19 19 19 19 19
25 25 26 27 28 28 27 27 27 28 29 28 27 26 26 26 25 25 24 24 24 23 23 23 23 23 22 22 22 21 21 21 20 20 20 20 20 19 19 19 19 19 19 19
26 26 28 29 28 28 27 27 27 28 28 28 27 25 25 26 26 25 25 24 24 24 23 23 23 23 23 22 22 22 21 21 21 20 20 20 19 19 19 19 19 19 19 19
26 27 28 28 28 28 27 28 28 29 27 25 26 24 24 25 25 25 24 24 24 24 23 23 23 23 23 23 22 22 22 21 21 20 20 20 20 20 20 19 19 19 19 19
26 28 28 28 29 29 28 29 28 28 26 24 24 23 23 24 24 24 24 24 24 24 24 23 23 23 23 23 23 22 22 21 21 21 20 20 20 20 20 19 19 19 19 19
27 28 29 29 29 29 29 28 26 24 22 23 24 24 23 23 24 24 24 24 24 24 24 24 24 23 23 23 22 22 22 21 21 21 21 20 20 20 20 19 19 19 19 19
26 27 28 29 28 28 27 24 23 23 22 22 23 23 22 24 24 24 24 24 24 24 24 23 23 23 23 23 22 22 22 22 21 21 21 21 20 20 20 20 19 19 19 19
24 25 27 28 28 27 26 24 23 23 23 22 23 23 23 24 25 25 25 25 24 24 24 24 24 23 23 23 23 22 22 22 22 21 21 21 20 20 20 20 19 19 19 19
24 24 27 29 29 28 27 25 23 22 23 22 22 23 24 24 24 24 24 24 24 24 24 23 23 23 23 23 23 23 22 22 22 22 21 21 20 20 20 20 20 19 19 19
24 25 25 28 28 28 27 25 22 22 22 22 23 23 22 23 23 23 23 23 23 23 24 24 23 23 23 23 23 22 22 22 22 22 21 21 21 20 20 20 19 19 19 19
23 23 24 25 26 26 26 26 22 20 20 21 22 22 24 23 23 22 22 23 23 23 23 23 23 23 23 23 22 22 22 22 22 22 21 21 21 20 20 20 19 19 19 19
22 20 21 23 25 26 26 25 22 22 21 20 20 21 24 23 22 22 22 23 23 23 23 23 23 23 23 23 22 22 22 22 22 22 21 21 20 20 20 20 19 19 19 19
22 20 20 22 22 24 24 24 23 21 20 19 20 22 22 22 22 22 22 22 22 22 22 23 23 23 22 22 22 22 22 22 22 21 21 20 20 20 20 20 19 19 19 19
22 19 20 21 21 22 23 24 24 21 20 20 21 21 21 21 21 21 22 22 22 22 22 22 22 22 22 22 22 21 21 21 21 21 20 20 20 20 19 19 19 19 19 19
19 19 21 21 22 23 24 24 24 23 22 21 21 21 21 21 21 21 21 21 21 21 21 22 22 21 21 22 21 21 21 21 20 20 20 20 19 19 19 19 19 19 19 19
17 19 20 20 22 23 23 24 24 24 23 22 22 21 20 21 21 21 21 21 20 21 21 21 21 21 21 21 21 21 20 20 20 19 19 19 19 19 19 19 19 19 18 18
17 18 18 18 20 21 21 22 23 22 22 22 21 20 20 20 20 20 20 20 20 20 20 20 20 20 20 20 20 20 20 20 19 19 19 19 18 18 18 18 18 18 18 18
17 17 16 17 19 20 19 21 22 21 21 21 20 20 20 19 20 20 20 20 20 20 20 19 19 20 20 20 20 20 19 19 19 19 19 18 18 18 18 18 18 17 17 17
17 17 16 16 17 18 20 21 21 20 19 19 19 19 19 20 19 19 20 20 20 20 20 20 19 19 19 19 19 19 19 19 18 18 18 18 18 18 18 17 17 17 17 17
16 16 16 16 17 18 18 21 21 20 18 19 18 18 18 18 17 17 19 19 19 19 19 19 19 19 19 19 18 18 18 18 18 18 18 17 17 17 17 17 17 16 16 16
16 15 15 15 16 17 18 20 20 18 17 18 18 18 18 17 17 18 18 18 19 19 19 19 18 18 18 18 18 18 18 17 17 17 17 17 17 16 16 16 16 16 16 16
15 15 15 14 15 16 17 18 17 16 17 17 18 18 18 18 18 17 17 17 18 18 18 18 18 18 18 18 18 17 17 17 17 16 16 16 16 16 16 16 15 16 15 15
15 14 14 14 15 16 17 17 17 18 17 17 17 17 17 17 17 17 17 17 17 17 17 17 18 18 17 17 17 17 17 16 16 16 16 16 16 15 15 15 15 15 15 15
14 14 14 14 15 16 17 17 17 17 17 17 17 17 17 17 16 16 16 16 16 16 17 17 17 17 17 16 16 16 16 16 15 15 15 15 15 15 15 14 14 14 14 14
14 14 13 13 14 15 16 16 17 17 17 17 16 16 16 16 16 16 16 16 16 16 16 16 16 16 16 16 15 15 15 15 15 15 14 14 14 14 14 14 14 14 14 14
13 13 13 13 14 13 15 16 16 16 16 16 16 15 15 15 15 15 15 15 15 15 15 15 15 15 15 15 15 14 14 14 14 14 14 14 14 13 13 13 13 13 13 13
Wind_Speed
3 2 4 9 8 9 7 5 7 8 5 3 3 4 9 11 11 11 12 12 13 13 12 13 14 15 13 12 11 10 9 8 6 4 4 4 4 4 4 5 8 9 10 10
4 6 11 9 7 6 5 6 7 7 5 3 2 2 6 10 14 15 16 15 13 12 11 13 13 14 14 14 12 11 10 9 8 6 5 4 4 3 4 4 5 8 9 9
9 10 8 7 7 7 7 6 7 5 3 2 4 2 3 6 7 10 13 14 14 16 16 15 14 14 14 14 14 13 12 10 9 7 4 3 2 2 2 3 4 5 8 8
8 10 8 8 9 8 8 9 7 4 1 2 2 2 6 5 5 8 10 10 12 14 13 12 14 14 15 15 14 12 12 10 9 8 7 7 6 5 5 4 4 5 6 7
8 6 7 8 10 7 9 8 4 3 3 0 1 3 6 2 3 7 10 11 12 13 14 14 14 15 14 13 12 11 11 10 9 9 9 8 6 5 3 3 4 5 4 5
9 7 6 8 8 7 5 1 4 5 5 1 5 4 5 4 7 8 8 9 10 12 13 12 11 10 10 12 11 11 11 10 9 9 9 9 8 7 6 5 6 5 3 4
8 8 5 4 4 7 1 4 3 5 4 5 3 3 7 7 7 9 9 9 7 9 11 11 10 11 11 13 13 12 12 11 10 10 9 9 9 8 8 7 7 6 4 4
4 8 6 4 6 6 4 9 8 6 6 5 2 4 6 6 4 6 7 8 7 7 8 10 12 12 12 13 13 12 13 12 12 11 10 9 8 7 6 7 6 7 6 6
5 8 7 5 4 5 4 5 10 8 3 2 3 3 4 2 3 5 5 7 7 8 9 9 9 10 11 13 14 14 14 12 12 12 10 9 8 7 7 6 6 5 5 6
7 5 8 6 2 2 5 6 6 6 5 3 4 3 5 4 2 5 7 7 6 6 8 8 7 9 10 10 10 11 11 11 10 11 10 9 8 7 6 6 6 6 6 6
3 4 6 4 1 4 1 1 4 5 6 7 3 6 5 8 6 6 6 8 7 6 7 7 6 7 8 8 8 10 11 9 9 10 9 9 8 7 6 5 6 6 5 6
1 4 3 7 7 4 4 4 6 4 4 6 5 6 3 6 6 7 7 7 8 7 6 5 6 5 6 6 7 9 10 10 9 9 8 8 7 7 7 7 6 6 6 6
2 5 1 8 8 6 3 1 2 4 3 4 5 6 1 4 4 5 7 8 8 7 6 5 4 4 5 5 5 6 8 9 8 8 8 8 7 7 8 7 6 5 5 5
2 3 5 7 7 4 4 6 2 4 3 4 7 6 4 4 5 5 6 7 8 7 7 6 5 4 4 5 5 5 5 6 8 8 8 8 8 7 7 6 6 5 5 5
4 2 1 4 5 3 4 7 5 2 5 6 7 8 9 8 8 7 7 7 7 7 7 6 5 4 5 5 5 4 4 4 6 6 7 7 6 6 6 6 6 5 5 5
4 1 3 4 4 5 5 6 4 3 1 2 3 2 3 4 5 6 7 8 7 7 6 6 5 5 5 5 5 4 4 3 5 6 6 6 6 6 6 6 6 5 4 4
2 2 2 4 6 5 4 3 1 1 1 3 4 4 5 4 5 6 7 8 8 7 6 5 5 4 4 4 4 5 3 3 4 5 5 5 5 5 5 6 4 4 4 3
4 2 2 1 4 4 6 3 3 4 4 3 3 4 6 6 4 3 5 7 7 7 7 6 4 4 4 4 4 4 4 4 4 5 5 5 5 5 5 5 5 4 3 3
7 6 3 3 3 5 5 4 2 2 3 3 4 3 4 6 6 4 2 3 5 6 5 5 5 5 4 4 4 4 4 4 5 4 4 4 5 5 4 5 4 3 3 3
3 5 5 3 3 4 5 5 1 4 2 3 4 4 4 6 3 2 1 3 4 4 5 5 4 5 5 4 5 5 4 4 4 4 4 4 4 4 4 4 4 3 3 3
3 2 2 4 4 5 6 7 3 3 3 3 2 4 4 3 4 4 2 3 3 4 5 6 5 4 4 4 5 5 3 3 3 3 3 3 4 4 4 4 3 3 3 2
2 1 2 3 3 6 5 4 3 4 2 0 1 3 4 4 5 5 4 3 3 4 4 5 5 3 3 4 5 5 3 2 2 3 3 2 2 3 3 3 2 2 2 2
1 4 4 4 5 5 1 2 2 3 2 1 1 2 4 6 5 4 3 3 3 4 4 4 5 4 2 3 5 4 3 2 3 4 3 2 1 1 2 3 2 2 1 1
4 2 1 1 3 2 1 1 1 2 2 2 3 3 4 5 4 3 3 3 2 2 2 3 5 4 2 2 3 4 3 3 4 4 3 2 2 1 1 1 2 2 2 2
5 3 2 3 4 3 4 2 1 2 4 5 4 3 3 3 3 3 2 2 2 1 1 2 4 3 2 2 2 2 3 4 4 3 3 2 2 2 1 1 0 1 2 3
4 4 4 6 6 3 4 3 1 4 3 3 3 2 2 3 2 2 1 1 2 1 1 2 2 2 2 2 2 2 3 3 4 3 2 1 1 1 1 1 2 4 1 2
Wind_Direction
286 96 235 238 220 213 232 254 264 264 244 169 203 195 179 178 178 175 176 175 177 188 186 173 170 169 166 165 165 167 166 171 164 159 161 162 172 174 175 185 184 181 179 176
349 258 236 236 241 237 245 266 270 278 261 192 151 222 194 182 187 184 177 178 179 176 178 177 172 171 172 173 174 171 173 175 173 175 172 170 165 174 181 183 181 184 179 177
223 241 241 236 249 252 263 240 246 241 292 51 110 317 247 205 185 185 187 181 178 177 180 180 177 176 175 178 180 180 179 177 178 173 156 150 126 130 163 176 187 188 183 185
242 243 246 249 250 228 254 248 238 232 133 272 134 229 271 219 185 185 187 188 183 181 177 180 181 178 181 185 182 179 177 176 176 169 166 164 172 184 195 186 188 189 185 184
252 238 232 243 247 231 232 238 240 231 157 43 28 144 269 264 201 199 190 189 190 183 179 182 184 185 184 183 181 177 172 174 176 172 172 173 180 187 180 174 178 186 189 187
253 255 223 231 249 241 236 321 6 46 73 320 244 170 259 229 210 198 188 187 188 184 182 186 186 179 178 178 179 176 174 178 178 175 175 178 179 180 174 179 183 187 190 192
293 291 268 236 281 301 36 95 20 352 1 254 250 158 240 241 201 188 183 178 176 175 179 184 183 180 181 179 178 179 180 183 183 182 186 187 185 183 186 187 188 186 189 197
251 283 273 253 208 224 223 148 163 200 226 260 303 208 246 256 201 175 172 160 159 162 174 181 183 181 181 179 177 179 186 189 188 188 193 195 189 188 192 191 188 191 196 199
201 255 276 266 234 178 196 188 174 153 183 210 260 267 307 322 132 140 143 140 160 173 166 174 175 176 180 185 185 185 186 188 190 192 190 194 195 193 192 191 188 191 194 195
178 244 284 291 345 312 178 172 101 121 154 227 267 234 220 231 202 146 140 142 161 167 163 162 162 170 180 188 187 182 183 189 190 188 190 193 194 193 188 185 192 192 195 196
144 181 289 331 225 248 316 96 119 134 155 163 221 260 216 192 184 157 159 150 147 149 159 160 164 174 170 170 177 183 185 185 187 189 187 187 184 185 184 188 200 200 196 194
334 139 253 266 264 229 166 174 144 160 229 171 175 250 243 170 163 146 149 147 140 140 135 140 155 159 157 168 184 196 190 187 189 191 187 190 183 180 190 201 204 204 204 204
19 105 23 328 333 2 29 31 132 145 143 168 180 244 250 120 127 135 137 144 142 135 122 112 126 142 155 164 178 185 186 187 184 186 188 189 189 190 195 200 199 198 200 205
55 100 157 203 238 277 308 313 303 121 162 210 208 204 220 168 158 149 136 141 144 140 136 128 131 138 147 145 148 157 161 175 179 181 184 190 191 192 190 192 193 193 190 194
62 90 228 236 258 287 300 308 307 256 200 201 217 193 206 193 174 162 145 136 130 135 134 133 136 142 138 130 130 138 146 161 172 176 183 189 184 180 178 182 193 190 187 192
31 67 13 327 321 335 315 308 304 298 270 188 147 201 207 168 133 128 136 134 133 139 140 135 126 124 131 138 142 137 145 159 158 168 179 175 175 179 183 190 192 188 193 188
336 73 53 291 311 354 300 295 355 12 300 164 196 207 154 129 146 162 160 149 144 143 139 140 141 135 138 141 139 144 151 146 149 160 164 164 169 175 182 188 189 193 194 181
186 147 156 242 5 252 252 298 71 73 35 46 117 151 149 149 151 137 144 144 143 142 142 145 142 139 136 125 118 130 129 139 146 145 149 156 156 166 176 180 194 195 181 177
174 156 152 156 213 268 297 320 348 72 350 18 100 103 108 107 78 54 75 121 143 145 143 139 138 138 125 115 112 103 116 129 132 139 155 162 160 164 170 174 182 181 172 192
68 121 142 163 187 231 264 292 278 96 348 342 96 108 116 96 96 241 317 91 103 117 121 121 118 112 115 122 113 110 121 127 145 159 163 154 157 165 171 174 171 171 166 184
13 20 173 189 213 252 277 309 32 123 221 293 121 126 121 146 181 192 156 108 108 117 122 120 117 125 141 144 128 128 120 146 177 157 138 139 151 162 164 159 157 161 169 175
206 201 216 171 199 248 301 27 104 198 226 357 95 117 110 116 119 130 127 116 100 104 116 124 132 139 140 138 134 136 146 177 151 129 130 134 145 157 150 146 159 168 171 173
204 200 197 191 217 245 301 131 181 149 118 100 106 102 116 115 122 133 122 114 105 115 133 140 139 130 121 133 132 139 168 154 132 126 130 134 126 133 153 160 165 172 174 178
310 356 81 334 279 284 342 66 54 91 94 74 74 97 115 131 135 134 129 131 115 99 127 123 122 126 132 135 135 156 162 151 140 143 148 145 130 110 88 127 160 175 184 187
268 328 325 282 281 335 330 332 125 100 84 76 62 70 84 102 118 135 150 144 123 88 54 101 129 142 165 165 161 170 161 150 144 149 149 151 152 152 118 59 325 219 230 216
249 220 219 245 247 233 276 292 131 115 106 99 83 52 64 100 114 117 156 152 120 107 85 100 122 149 175 177 188 200 184 161 147 142 149 157 155 153 149 130 25 16 4 2
Height
1470 1478 1484 1479 1477 1480 1482 1486 1487 1477 1467 1470 1474 1476 1476 1478 1480 1482 1484 1486 1488 1491 1494 1496 1499 1502 1504 1507 1509 1511 1513 1515 1516 1518 1520 1521 1522 1524 1525 1527 1528 1530 1531 1533
1477 1481 1472 1469 1470 1474 1478 1485 1484 1475 1466 1469 1476 1477 1474 1474 1476 1477 1479 1482 1485 1489 1493 1495 1497 1499 1501 1504 1506 1509 1511 1513 1515 1517 1519 1521 1522 1523 1525 1526 1527 1529 1530 1532
1478 1472 1464 1467 1470 1475 1477 1481 1479 1476 1469 1468 1477 1486 1479 1474 1474 1476 1478 1479 1482 1485 1488 1492 1494 1496 1499 1501 1504 1506 1508 1511 1513 1515 1518 1520 1521 1523 1524 1525 1526 1527 1529 1530
1470 1463 1463 1466 1468 1469 1479 1467 1467 1469 1479 1488 1483 1505 1487 1476 1475 1475 1476 1479 1481 1483 1486 1489 1492 1494 1496 1499 1502 1504 1507 1509 1511 1514 1515 1517 1518 1520 1521 1523 1524 1526 1527 1529
1468 1460 1462 1465 1461 1460 1465 1458 1462 1465 1476 1488 1486 1500 1494 1479 1479 1475 1474 1476 1478 1480 1483 1485 1488 1490 1493 1497 1500 1503 1505 1507 1509 1511 1513 1515 1517 1519 1520 1522 1523 1524 1526 1527
1458 1453 1454 1455 1451 1452 1453 1459 1466 1475 1487 1503 1490 1497 1498 1483 1476 1471 1471 1472 1475 1477 1480 1482 1485 1488 1492 1495 1498 1500 1503 1505 1507 1509 1511 1513 1515 1517 1518 1519 1521 1522 1524 1525
1464 1455 1449 1448 1454 1453 1456 1478 1501 1504 1512 1508 1487 1492 1491 1470 1464 1465 1466 1468 1472 1475 1477 1480 1482 1486 1489 1492 1495 1497 1499 1502 1504 1507 1509 1511 1512 1514 1516 1517 1519 1520 1521 1523
1478 1474 1452 1446 1452 1458 1459 1474 1500 1513 1515 1505 1489 1493 1480 1463 1459 1461 1463 1465 1469 1472 1474 1476 1478 1481 1485 1488 1491 1493 1496 1498 1501 1503 1506 1508 1510 1512 1513 1515 1517 1518 1519 1521
1474 1471 1447 1442 1441 1447 1458 1467 1469 1489 1495 1504 1498 1486 1472 1463 1462 1464 1465 1466 1469 1471 1472 1474 1476 1478 1482 1485 1487 1489 1492 1495 1498 1500 1502 1505 1507 1509 1511 1513 1515 1516 1517 1519
1458 1466 1452 1443 1441 1442 1447 1454 1474 1489 1504 1511 1500 1490 1485 1470 1466 1465 1465 1467 1469 1470 1470 1472 1474 1476 1479 1482 1485 1488 1490 1492 1494 1497 1499 1502 1504 1506 1508 1511 1512 1513 1514 1516
1453 1466 1460 1451 1452 1453 1452 1457 1468 1484 1489 1504 1509 1495 1464 1463 1461 1462 1463 1464 1467 1469 1470 1471 1472 1474 1477 1480 1483 1485 1486 1489 1492 1493 1496 1498 1500 1503 1505 1507 1509 1511 1512 1512
1454 1464 1470 1459 1446 1441 1446 1454 1467 1483 1488 1490 1497 1488 1455 1455 1456 1458 1461 1463 1465 1468 1469 1470 1472 1474 1476 1478 1480 1481 1483 1485 1487 1490 1492 1495 1497 1499 1501 1503 1505 1507 1508 1509
1454 1467 1481 1474 1464 1452 1452 1452 1458 1467 1479 1489 1494 1484 1456 1455 1456 1456 1458 1461 1463 1466 1468 1469 1471 1473 1474 1475 1476 1477 1480 1482 1484 1487 1489 1492 1494 1496 1497 1499 1500 1502 1504 1505
1451 1467 1476 1482 1475 1463 1459 1454 1453 1464 1480 1483 1478 1472 1462 1458 1457 1457 1458 1459 1462 1463 1466 1468 1470 1471 1472 1473 1474 1476 1477 1479 1481 1484 1486 1488 1490 1492 1494 1495 1497 1498 1499 1501
1455 1466 1463 1462 1458 1455 1455 1453 1451 1456 1462 1469 1466 1463 1459 1455 1453 1454 1457 1459 1461 1462 1464 1466 1469 1470 1470 1470 1472 1474 1476 1477 1480 1481 1483 1484 1487 1489 1490 1492 1493 1493 1494 1496
1459 1465 1464 1463 1455 1454 1454 1450 1449 1450 1451 1454 1456 1459 1452 1452 1453 1455 1456 1457 1459 1461 1463 1465 1467 1467 1467 1468 1470 1472 1474 1475 1477 1478 1479 1481 1483 1485 1487 1488 1488 1489 1491 1492
1464 1467 1472 1474 1462 1458 1464 1454 1450 1451 1449 1451 1457 1456 1451 1453 1453 1454 1455 1456 1457 1460 1462 1464 1465 1466 1466 1467 1468 1470 1471 1473 1474 1476 1477 1478 1480 1482 1483 1484 1485 1486 1486 1487
1462 1467 1475 1476 1471 1478 1464 1447 1445 1448 1449 1448 1448 1449 1449 1449 1452 1453 1454 1455 1456 1458 1460 1462 1464 1465 1465 1465 1467 1468 1470 1471 1472 1473 1474 1475 1476 1477 1479 1480 1481 1482 1482 1483
1453 1463 1473 1479 1480 1472 1458 1449 1447 1451 1455 1450 1450 1450 1450 1450 1452 1455 1455 1455 1455 1457 1459 1460 1462 1464 1464 1465 1466 1467 1468 1469 1470 1470 1472 1473 1473 1474 1476 1476 1477 1479 1479 1480
1452 1457 1469 1475 1477 1478 1463 1448 1444 1448 1460 1452 1450 1451 1451 1451 1458 1459 1456 1455 1456 1457 1458 1459 1461 1463 1463 1464 1465 1466 1466 1467 1468 1468 1469 1470 1471 1472 1473 1473 1475 1476 1476 1476
1464 1466 1470 1473 1475 1467 1454 1446 1444 1461 1464 1455 1451 1450 1451 1451 1454 1455 1455 1455 1455 1456 1456 1458 1460 1461 1462 1463 1464 1465 1465 1465 1465 1467 1467 1468 1468 1469 1470 1471 1472 1473 1473 1473
1468 1470 1471 1472 1475 1470 1451 1448 1454 1457 1453 1453 1452 1450 1450 1451 1451 1453 1454 1454 1454 1454 1456 1457 1459 1459 1459 1461 1462 1462 1462 1463 1463 1465 1465 1465 1466 1466 1467 1468 1469 1470 1470 1469
1464 1464 1465 1466 1465 1455 1451 1451 1452 1451 1451 1451 1452 1451 1451 1451 1452 1453 1453 1453 1454 1454 1455 1456 1456 1455 1456 1458 1458 1459 1460 1460 1461 1463 1463 1463 1463 1464 1465 1465 1465 1466 1467 1466
1461 1457 1460 1460 1456 1453 1451 1451 1450 1450 1450 1450 1451 1452 1452 1451 1452 1452 1453 1453 1453 1453 1453 1452 1453 1454 1454 1455 1456 1457 1457 1458 1459 1459 1460 1460 1461 1461 1462 1463 1463 1463 1463 1463
1461 1459 1460 1459 1455 1452 1450 1450 1450 1450 1449 1450 1451 1452 1452 1452 1452 1452 1453 1452 1452 1452 1452 1451 1451 1453 1453 1454 1454 1455 1455 1456 1456 1456 1457 1458 1459 1459 1459 1460 1460 1460 1460 1460
1456 1457 1459 1458 1453 1453 1451 1450 1449 1448 1449 1449 1450 1451 1451 1451 1452 1452 1452 1451 1451 1452 1451 1451 1451 1452 1453 1453 1453 1453 1454 1454 1454 1454 1455 1456 1456 1456 1457 1457 1457 1458 1458 1458